Location: Voyageurs National Park
(48.5020°N, 92.9292°W)
Time: 15:39:56
(UTC-05:00)

PCSat - Visible Passes

Search period start: 30 April 2017 00:00
Search period end: 10 May 2017 00:00
Orbit: 784 x 796 km, 67.1° (Epoch: 29 April)

Date Brightness Start Highest point End Pass type
(mag) Time Alt. Az. Time Alt. Az. Time Alt. Az.
30 Apr 10.2 02:02:12 41° ESE 02:02:19 41° ESE 02:07:25 10° NE visible
30 Apr 10.4 03:42:54 23° W 03:45:45 41° NW 03:50:55 10° NNE visible
01 May 10.7 01:31:57 31° ESE 01:31:57 31° ESE 01:36:19 10° NE visible
01 May 10.1 03:12:38 33° WSW 03:14:46 51° NW 03:20:06 10° NNE visible
01 May 11.7 04:56:03 10° WNW 04:59:28 17° NNW 05:02:53 10° NNE visible
02 May 11.1 01:01:39 23° E 01:01:39 23° E 01:05:06 10° ENE visible
02 May 9.7 02:42:20 46° WSW 02:43:49 66° NW 02:49:15 10° NNE visible
02 May 11.6 04:24:26 10° WNW 04:28:16 19° NNW 04:32:07 10° NNE visible
03 May 11.5 00:31:19 17° E 00:31:19 17° E 00:33:42 10° ENE visible
03 May 9.5 02:12:00 63° SW 02:12:54 84° NW 02:18:23 10° NE visible
03 May 11.4 03:52:54 10° W 03:57:07 22° NNW 04:01:21 10° NNE visible
04 May 11.8 00:00:56 12° E 00:00:56 12° E 00:01:51 10° ENE visible
04 May 9.4 01:41:37 71° SSE 01:42:02 76° ESE 01:47:29 10° NE visible
04 May 11.2 03:22:18 14° W 03:26:00 26° NW 03:30:35 10° NNE visible
04 May 12.1 05:09:26 10° NNW 05:11:23 12° NNW 05:13:19 10° N visible
05 May 9.7 01:11:12 57° ESE 01:11:12 57° ESE 01:16:33 10° NE visible
05 May 10.9 02:51:53 19° W 02:54:55 32° NW 02:59:48 10° NNE visible
05 May 12.0 04:37:42 10° NW 04:40:06 13° NNW 04:42:31 10° N visible
06 May 10.1 00:40:43 43° ESE 00:40:43 43° ESE 00:45:33 10° NE visible
06 May 10.6 02:21:24 25° W 02:23:53 39° NW 02:29:00 10° NNE visible
06 May 12.0 04:05:57 10° NW 04:08:51 14° NNW 04:11:45 10° NNE visible
07 May 10.5 00:10:12 32° E 00:10:12 32° E 00:14:28 10° NE visible
07 May 10.2 01:50:52 33° WSW 01:52:53 49° NW 01:58:11 10° NNE visible
07 May 11.9 03:34:16 10° WNW 03:37:37 16° NNW 03:40:58 10° NNE visible
07 May 10.9 23:39:36 24° E 23:39:36 24° E 23:43:17 10° NE visible
08 May 9.9 01:20:17 43° WSW 01:21:56 63° NW 01:27:21 10° NNE visible
08 May 11.8 03:02:39 10° WNW 03:06:25 19° NNW 03:10:12 10° NNE visible
08 May 12.4 04:50:58 10° NNW 04:52:09 11° N 04:53:20 10° N visible
08 May 11.2 23:08:56 18° E 23:08:56 18° E 23:11:54 10° ENE visible
09 May 9.5 00:49:36 51° SW 00:51:00 81° NW 00:56:30 10° NNE visible
09 May 11.6 02:31:06 10° W 02:35:15 22° NNW 02:39:26 10° NNE visible
09 May 12.3 04:19:24 10° NNW 04:20:51 11° N 04:22:18 10° N visible
09 May 11.4 22:38:11 13° E 22:38:11 13° E 22:40:11 10° ENE visible
